Weather reports worldwide

Advertisment
Banja Luka, Bosnia/Herzegovina (14542): temperature & dewpoint: 28.06.2020 23:00:00 - 04.07.2020 23:00:00 (CEST)Banja Luka, Bosnia/Herzegovina (14542): wind speed: 28.06.2020 23:00:00 - 04.07.2020 23:00:00 (CEST)Banja Luka, Bosnia/Herzegovina (14542): wind direction: 28.06.2020 23:00:00 - 04.07.2020 23:00:00 (CEST)Banja Luka, Bosnia/Herzegovina (14542): reduced air pressure: 28.06.2020 23:00:00 - 04.07.2020 23:00:00 (CEST)Banja Luka, Bosnia/Herzegovina (14542): visibility: 28.06.2020 23:00:00 - 04.07.2020 23:00:00 (CEST)
Date & Time tt [°C] td [°C] ff [km/h] ff [kn] dd ppp [hPa] vv [km]
04.07.2020 23:00:00 21,0 16,4 0 0 N 1016,6 20
04.07.2020 22:00:00 21,8 16,3 0 0 N 1016,4 20
04.07.2020 21:00:00 23,8 17,2 0 0 N 1015,6 25
04.07.2020 20:00:00 26,0 15,3 4 2 NNE 1015,2 25
04.07.2020 19:00:00 27,4 14,9 4 2 NNE 1015,1 25
04.07.2020 18:00:00 27,5 14,4 4 2 NNE 1015,5 25
04.07.2020 17:00:00 26,6 13,5 4 2 NNE 1015,5 25
04.07.2020 16:00:00 26,8 14,1 11 6 NNW 1015,9 25
04.07.2020 15:00:00 - - - - - - -
04.07.2020 14:00:00 26,3 14,4 7 4 NW 1016,8 25
04.07.2020 13:00:00 26,5 15,2 4 2 NE 1016,9 25
04.07.2020 12:00:00 - - - - - - -
04.07.2020 11:00:00 - - - - - - -
04.07.2020 10:00:00 23,8 14,9 4 2 WNW 1017,7 25
04.07.2020 09:00:00 - - - - - - -
04.07.2020 08:00:00 20,7 15,8 4 2 WSW 1017,6 20
04.07.2020 07:00:00 19,0 16,7 4 2 SSW 1017,7 20
04.07.2020 06:00:00 18,3 16,6 0 0 N 1017,8 20
04.07.2020 05:00:00 18,4 16,5 4 2 S 1017,7 20
04.07.2020 04:00:00 - - - - - - -
04.07.2020 03:00:00 - - - - - - -
04.07.2020 02:00:00 18,8 16,6 4 2 SW 1017,6 15
04.07.2020 01:00:00 - - - - - - -
04.07.2020 00:00:00 - - - - - - -
03.07.2020 23:00:00 18,5 14,7 4 2 WSW 1017,8 15
03.07.2020 22:00:00 19,6 16,5 4 2 WSW 1017,1 20
03.07.2020 21:00:00 21,6 16,0 0 0 N 1015,9 20
03.07.2020 20:00:00 22,0 16,4 4 2 W 1015,7 20
03.07.2020 19:00:00 22,3 16,0 4 2 W 1015,4 20
03.07.2020 18:00:00 22,2 15,8 4 2 N 1015,3 15
03.07.2020 17:00:00 21,9 15,6 7 4 NNW 1015,1 5
03.07.2020 16:00:00 22,0 17,5 7 4 NNW 1014,5 5
03.07.2020 15:00:00 - - - - - - -
03.07.2020 14:00:00 - - - - - - -
03.07.2020 13:00:00 21,8 19,3 4 2 W 1014,5 5
03.07.2020 12:00:00 - - - - - - -
03.07.2020 11:00:00 22,4 18,1 4 2 NW 1012,6 4,0
03.07.2020 10:00:00 - - - - - - -
03.07.2020 09:00:00 22,3 19,6 7 4 WSW 1012,3 4,0
03.07.2020 08:00:00 21,3 17,9 4 2 SSE 1011,4 4,0
03.07.2020 07:00:00 19,6 17,7 4 2 SSW 1011,6 25
03.07.2020 06:00:00 18,6 17,1 4 2 WNW 1011,2 25
03.07.2020 05:00:00 18,8 17,4 4 2 WSW 1010,9 25
03.07.2020 04:00:00 - - - - - - -
03.07.2020 03:00:00 - - - - - - -
03.07.2020 02:00:00 - - - - - - -
03.07.2020 01:00:00 - - - - - - -
03.07.2020 00:00:00 - - - - - - -
02.07.2020 23:00:00 22,7 19,7 4 2 SSW 1010,6 25
02.07.2020 22:00:00 23,8 19,9 4 2 SSW 1010,5 25
02.07.2020 21:00:00 24,4 19,5 0 0 N 1009,9 25
02.07.2020 20:00:00 25,7 19,7 4 2 WSW 1009,8 25
02.07.2020 19:00:00 26,8 20,0 4 2 WNW 1009,8 25
02.07.2020 18:00:00 27,4 19,4 4 2 WSW 1009,9 25
02.07.2020 17:00:00 28,0 21,1 4 2 WSW 1010,0 25
02.07.2020 16:00:00 - - - - - - -
02.07.2020 15:00:00 29,0 20,8 7 4 WSW 1010,0 25
02.07.2020 14:00:00 33,1 17,7 7 4 NNW 1010,0 25
02.07.2020 13:00:00 - - - - - - -
02.07.2020 12:00:00 31,6 16,2 7 4 NNW 1010,3 25
02.07.2020 11:00:00 30,7 18,1 4 2 NNW 1010,0 25
02.07.2020 10:00:00 - - - - - - -
02.07.2020 09:00:00 - - - - - - -
02.07.2020 08:00:00 23,6 18,6 4 2 SSE 1010,5 25
02.07.2020 07:00:00 21,6 18,4 4 2 SSE 1009,7 20
02.07.2020 06:00:00 20,2 18,1 0 0 N 1009,8 20
02.07.2020 05:00:00 20,8 19,0 4 2 SSE 1009,8 15
02.07.2020 04:00:00 - - - - - - -
02.07.2020 03:00:00 - - - - - - -
02.07.2020 02:00:00 22,4 20,4 0 0 N 1010,2 10
02.07.2020 01:00:00 - - - - - - -
02.07.2020 00:00:00 - - - - - - -
01.07.2020 23:00:00 25,8 21,6 0 0 N 1009,5 20
01.07.2020 22:00:00 27,8 21,7 0 0 N 1009,4 20
01.07.2020 21:00:00 29,8 21,5 0 0 N 1008,8 25
01.07.2020 20:00:00 - - - - - - -
01.07.2020 19:00:00 - - - - - - -
01.07.2020 18:00:00 33,5 19,9 7 4 NE 1008,8 25
01.07.2020 17:00:00 - - - - - - -
01.07.2020 16:00:00 - - - - - - -
01.07.2020 15:00:00 - - - - - - -
01.07.2020 14:00:00 33,0 19,8 7 4 SSE 1011,2 25
01.07.2020 13:00:00 32,0 18,2 7 4 S 1011,2 25
01.07.2020 12:00:00 31,2 18,6 4 2 W 1012,0 25
01.07.2020 11:00:00 - - - - - - -
01.07.2020 10:00:00 - - - - - - -
01.07.2020 09:00:00 23,2 18,0 4 2 SSE 1013,3 25
01.07.2020 08:00:00 20,6 17,1 4 2 SSE 1013,3 25
01.07.2020 07:00:00 18,2 16,2 4 2 WSW 1013,3 25
01.07.2020 06:00:00 17,2 15,3 4 2 WNW 1013,0 25
01.07.2020 05:00:00 17,0 15,6 4 2 W 1013,0 25
01.07.2020 04:00:00 - - - - - - -
01.07.2020 03:00:00 - - - - - - -
01.07.2020 02:00:00 19,2 16,7 4 2 W 1012,9 25
01.07.2020 01:00:00 - - - - - - -
01.07.2020 00:00:00 - - - - - - -
30.06.2020 23:00:00 22,6 17,7 4 2 ENE 1012,9 25
30.06.2020 22:00:00 24,9 18,3 4 2 NE 1012,4 25
30.06.2020 21:00:00 26,8 17,2 4 2 NNE 1011,5 25
30.06.2020 20:00:00 28,3 16,7 7 4 NNE 1011,0 25
30.06.2020 19:00:00 30,1 15,5 7 4 NE 1011,3 25
30.06.2020 18:00:00 - - - - - - -
30.06.2020 17:00:00 31,3 14,9 11 6 NNE 1012,1 25
30.06.2020 16:00:00 30,8 15,6 7 4 NNE 1012,3 25
30.06.2020 15:00:00 30,2 14,9 11 6 NNE 1012,6 25
30.06.2020 14:00:00 - - - - - - -
30.06.2020 13:00:00 27,8 17,9 11 6 NNE 1013,9 25
30.06.2020 12:00:00 - - - - - - -
30.06.2020 11:00:00 - - - - - - -
30.06.2020 10:00:00 21,9 16,6 4 2 WNW 1015,8 25
30.06.2020 09:00:00 20,1 15,8 0 0 N 1014,6 25
30.06.2020 08:00:00 17,7 14,5 0 0 N 1014,9 25
30.06.2020 07:00:00 16,8 14,8 4 2 SSW 1016,1 25
30.06.2020 06:00:00 15,7 13,9 4 2 WNW 1016,0 25
30.06.2020 05:00:00 - - - - - - -
30.06.2020 04:00:00 - - - - - - -
30.06.2020 03:00:00 - - - - - - -
30.06.2020 02:00:00 - - - - - - -
30.06.2020 01:00:00 - - - - - - -
30.06.2020 00:00:00 - - - - - - -
29.06.2020 23:00:00 20,1 14,8 4 2 W 1014,9 20
29.06.2020 22:00:00 20,7 15,3 4 2 WSW 1014,4 20
29.06.2020 21:00:00 21,4 15,7 4 2 WSW 1014,2 20
29.06.2020 20:00:00 22,9 16,1 7 4 NNE 1013,5 20
29.06.2020 19:00:00 24,2 15,3 29 16 N 1012,0 20
29.06.2020 18:00:00 33,4 14,4 18 10 WSW 1007,5 20
29.06.2020 17:00:00 35,1 15,2 4 2 WSW 1007,4 25
29.06.2020 16:00:00 35,0 15,2 4 2 WSW 1007,4 25
29.06.2020 15:00:00 - - - - - - -
29.06.2020 14:00:00 33,0 17,1 7 4 WNW 1008,6 20
29.06.2020 13:00:00 - - - - - - -
29.06.2020 12:00:00 32,1 16,9 7 4 WNW 1009,9 20
29.06.2020 11:00:00 - - - - - - -
29.06.2020 10:00:00 - - - - - - -
29.06.2020 09:00:00 24,4 18,6 4 2 SSE 1011,9 20
29.06.2020 08:00:00 22,3 18,0 4 2 NE 1012,0 20
29.06.2020 07:00:00 20,5 17,5 4 2 N 1011,9 20
29.06.2020 06:00:00 19,4 17,9 0 0 N 1012,0 20
29.06.2020 05:00:00 19,6 18,0 0 0 N 1012,0 20
29.06.2020 04:00:00 - - - - - - -
29.06.2020 03:00:00 - - - - - - -
29.06.2020 02:00:00 21,1 18,6 0 0 N 1013,1 25
29.06.2020 01:00:00 - - - - - - -
29.06.2020 00:00:00 - - - - - - -
28.06.2020 23:00:00 23,3 19,4 4 2 WNW 1013,2 25

tt = temperature
td = dewpoint
ff = wind speed
dd = wind direction
ppp = reduced air pressure
vv = visibility

Next stations